Wind_Speed
1 2 3 3 2 1 2 3 4 5 6 5 2 3 4 2 2 4 6 4 4 5 9 10 10 11 11 13 17 18 20 22 23 27 33 33 34 37 40 41 41 39 35 30 23 15 7 5 12 17 21 25 30 35 40 41 41 42 43 44 46 47 48 48 48 46 43 42 41 39 39 39 40 42 44 46 47 47 48 49 49 48 47 45 44 43 41
1 2 3 3 4 4 3 2 3 3 4 5 5 5 6 5 5 7 7 4 1 3 8 8 9 13 13 14 17 21 23 24 23 26 29 30 33 35 37 38 38 38 38 35 30 23 15 8 3 9 13 18 23 29 34 38 39 40 41 42 44 45 47 48 47 46 45 44 42 41 40 40 39 40 41 43 45 46 48 48 49 48 48 47 46 45 44
3 3 2 4 4 4 4 3 5 5 5 6 5 5 6 5 6 5 3 2 2 3 8 10 11 13 15 16 19 22 23 23 24 25 26 29 33 35 35 36 35 35 35 36 34 30 25 18 10 1 6 12 17 23 28 32 36 38 39 41 43 44 46 47 46 46 46 45 44 43 42 41 40 40 40 40 42 44 45 47 47 48 49 49 48 47 46
4 4 5 7 6 4 3 2 3 2 2 2 2 2 2 2 4 4 2 1 1 4 9 10 12 13 14 16 18 20 21 23 24 24 25 29 33 34 33 33 33 32 32 34 35 33 31 26 19 11 3 5 12 19 24 28 31 35 39 41 42 44 45 45 46 46 46 46 45 45 44 43 42 41 40 41 41 42 43 44 45 46 48 49 49 48 48
4 5 6 8 8 6 2 1 1 2 2 0 1 2 3 3 1 2 1 1 0 4 7 7 9 11 12 14 16 19 21 23 23 23 24 28 31 32 31 30 31 30 29 29 31 32 32 31 26 20 12 5 5 13 21 26 28 32 37 40 41 42 43 43 44 45 45 46 46 45 45 44 43 42 42 42 42 41 42 42 43 45 46 47 48 48 48
3 6 6 6 6 4 3 3 0 3 2 2 2 1 2 3 3 1 2 1 3 4 5 5 7 8 8 11 15 19 21 22 23 23 23 26 29 30 29 28 29 28 27 26 27 28 29 30 28 25 19 12 5 6 15 23 27 29 34 38 39 40 41 41 42 43 44 45 45 45 45 44 44 44 44 43 41 40 40 40 41 43 44 45 46 46 47
2 4 6 5 3 4 4 5 4 3 3 3 3 1 2 2 3 3 3 3 4 4 6 6 8 10 6 6 12 19 22 22 23 24 24 25 26 28 27 27 27 27 26 25 26 26 26 28 28 27 24 18 11 6 9 18 23 27 30 34 36 37 39 40 41 41 43 44 45 45 44 44 45 44 44 43 41 40 39 39 39 39 41 43 44 45 45
0 2 2 1 4 5 7 8 6 2 3 3 3 0 3 3 2 2 1 2 3 6 9 8 9 13 10 2 4 14 20 22 22 23 24 24 24 24 25 25 25 26 25 24 24 24 24 25 26 27 25 22 18 14 6 11 17 23 28 31 33 34 35 37 39 41 42 43 44 45 44 44 45 44 44 43 41 40 39 39 38 37 37 38 40 42 43
1 1 2 2 4 7 7 5 3 2 3 2 1 2 4 3 1 0 1 1 3 5 9 12 15 16 9 5 4 7 19 23 22 20 20 21 21 23 23 22 22 24 24 22 21 21 21 21 23 25 25 23 22 20 12 7 12 18 23 28 31 32 32 33 36 38 41 42 43 44 44 44 45 44 44 43 42 41 40 40 39 38 37 35 36 39 41
2 2 2 3 3 4 4 3 3 6 7 5 3 2 4 3 1 2 1 2 4 5 7 13 17 14 5 4 4 10 21 25 24 23 20 19 20 22 22 22 22 21 22 22 21 20 19 19 18 21 24 24 23 23 18 9 8 12 16 20 25 30 32 33 33 34 37 39 42 43 43 44 44 44 43 43 42 42 41 41 41 39 38 36 35 36 38
1 2 2 2 3 4 4 3 5 9 11 9 5 3 2 1 3 6 4 4 6 6 6 11 13 9 2 2 5 15 23 25 25 25 23 20 20 21 21 21 21 21 22 22 20 19 19 19 18 19 22 24 24 24 22 15 9 10 12 15 19 23 28 31 33 33 34 35 38 40 42 43 44 44 44 43 42 42 42 42 41 40 39 38 37 36 36
2 3 3 3 2 3 4 4 7 10 9 7 4 2 2 4 8 9 7 7 8 7 7 8 7 3 2 6 12 21 25 25 24 25 24 22 21 22 21 19 19 21 22 21 21 20 20 19 18 18 20 23 24 24 23 19 12 11 13 14 16 19 22 25 28 31 33 34 36 38 40 42 43 43 43 43 42 42 42 42 41 40 40 40 39 38 37
4 4 3 4 3 3 3 4 9 10 6 2 1 3 1 5 9 9 7 8 10 9 9 7 3 4 8 14 20 24 25 25 25 24 23 23 22 22 21 19 19 21 22 21 20 20 19 19 18 17 19 22 24 24 24 21 18 15 14 15 17 19 21 22 24 26 28 31 33 36 38 40 41 42 43 43 43 42 42 42 42 41 40 40 40 39 38
2 3 2 4 4 3 2 4 7 5 0 2 3 4 6 6 6 7 7 8 10 12 13 11 9 12 16 19 23 24 24 26 27 25 24 25 25 23 21 19 19 21 23 22 20 19 18 19 18 17 18 19 22 24 23 22 21 19 16 16 18 21 22 23 23 23 23 24 27 30 34 36 37 40 41 42 43 43 43 43 42 42 41 41 41 40 39
2 2 3 4 3 2 1 4 3 2 3 2 6 10 10 8 7 9 10 11 12 15 17 18 17 17 18 20 23 23 23 24 27 28 27 27 28 26 23 21 21 22 23 23 22 20 19 18 18 18 18 19 20 22 23 22 21 21 19 18 17 20 23 25 25 24 23 22 22 23 26 29 32 35 37 39 41 41 42 43 43 43 42 41 41 41 40
3 3 4 4 3 4 2 0 2 5 7 9 9 10 11 11 11 12 14 15 16 16 19 22 23 21 19 20 22 24 24 24 26 29 30 30 30 29 26 23 22 22 23 24 24 22 20 18 18 18 19 20 20 21 22 22 22 22 21 20 19 19 20 23 26 26 24 23 23 22 22 24 27 30 32 34 36 38 41 43 43 43 42 42 42 42 42
3 4 7 6 4 3 3 5 7 9 11 10 9 10 12 14 15 16 18 19 19 18 19 22 25 25 21 20 22 24 26 27 27 29 32 33 32 32 29 26 24 23 24 25 25 25 22 19 18 18 18 20 21 21 21 22 22 22 22 23 23 21 19 20 23 25 25 25 25 24 23 23 25 28 29 31 33 36 39 42 43 44 43 43 42 43 43
3 7 12 13 12 14 12 9 9 9 11 12 12 13 15 17 19 20 21 21 21 19 19 22 26 28 26 24 24 26 28 30 29 30 32 34 34 34 32 30 27 25 25 25 25 26 23 19 18 18 17 18 21 22 21 21 22 22 22 23 25 25 22 20 20 22 25 27 27 27 26 25 25 27 28 30 33 35 37 40 42 43 44 43 43 43 43
2 4 7 7 7 10 9 8 11 13 14 15 15 16 18 21 22 23 23 23 21 20 20 22 26 30 30 28 28 28 29 31 32 31 32 34 36 36 34 33 30 27 25 25 25 26 25 20 18 19 17 17 20 22 21 21 21 22 23 23 26 27 25 22 20 20 23 25 26 27 28 28 28 27 27 28 32 35 37 39 40 42 44 45 45 44 44
4 5 9 9 9 10 11 14 17 17 16 16 16 17 20 23 23 24 24 24 23 23 24 24 27 32 34 32 31 30 31 32 33 33 33 35 37 38 37 35 32 28 25 24 23 24 24 21 19 20 20 18 19 21 22 21 21 24 24 25 27 28 27 25 22 20 20 21 23 25 28 30 31 31 29 29 31 34 36 37 38 39 41 43 45 45 43
4 7 12 14 12 13 15 17 16 15 14 16 17 18 21 23 23 24 25 25 26 27 28 28 29 33 36 35 32 32 32 33 34 34 34 35 38 39 38 36 32 28 25 23 22 23 23 21 20 21 21 20 20 21 21 21 21 24 26 26 28 29 27 24 22 20 19 19 21 23 26 28 31 33 33 32 33 34 35 35 36 36 37 39 41 41 41
3 7 10 10 6 7 11 13 13 14 14 16 18 20 21 22 23 25 27 28 29 30 31 31 30 33 36 36 33 33 33 33 34 34 33 35 37 38 37 35 31 28 24 22 21 21 21 20 20 21 21 21 21 20 20 21 21 22 25 27 29 30 28 25 21 19 19 20 20 23 25 27 29 32 34 34 35 35 35 36 38 38 38 37 36 36 38
8 13 16 13 10 11 14 14 14 14 14 16 19 20 21 22 23 25 27 30 32 34 35 34 31 32 34 35 34 34 35 34 34 35 34 35 36 36 35 32 30 27 23 21 20 20 20 20 21 21 21 21 22 21 19 20 20 21 23 26 28 29 29 27 23 19 18 20 20 22 24 26 28 30 33 35 35 35 35 37 40 41 40 38 35 36 39
15 19 19 14 13 15 17 16 15 14 14 16 19 20 21 22 23 25 27 30 34 36 37 35 33 32 33 35 35 36 37 36 35 35 35 34 33 33 32 30 29 26 22 21 20 20 19 19 21 21 21 21 22 21 19 18 18 20 22 26 28 28 28 27 24 20 19 19 19 21 23 24 27 30 33 35 36 37 37 39 41 42 41 39 38 38 40
20 22 20 16 16 17 16 15 15 14 14 16 18 19 20 22 23 25 27 30 32 34 35 36 35 34 33 34 35 35 36 35 34 34 34 33 31 30 31 31 29 26 23 21 20 19 19 20 20 21 22 21 21 20 18 17 16 18 21 25 26 26 26 26 24 21 19 19 19 20 21 22 25 28 32 34 36 37 38 39 41 42 42 40 39 39 41
24 23 19 16 17 17 15 15 15 14 14 15 17 18 20 21 23 26 28 30 32 32 32 33 34 32 31 32 33 33 35 34 33 32 34 34 32 32 32 32 29 25 23 21 20 20 19 20 21 22 21 21 20 18 16 15 14 16 19 23 24 24 24 24 24 22 20 19 19 20 20 21 23 26 29 32 34 36 38 38 40 42 44 43 41 42 43
22 21 17 14 15 16 16 16 15 14 15 15 17 19 20 21 24 27 29 31 32 31 31 30 30 30 31 32 33 34 35 34 33 33 34 36 36 34 32 30 28 25 23 21 21 20 19 20 22 23 21 20 19 15 13 13 14 15 18 21 22 22 23 25 25 24 21 20 20 20 20 20 22 25 27 30 33 37 39 38 38 40 41 43 43 44 44
18 18 15 14 16 16 15 14 13 14 14 15 17 19 21 23 25 26 29 32 32 31 31 30 30 31 32 33 33 35 35 34 34 35 36 37 36 33 30 29 28 26 23 22 21 20 19 20 23 22 20 20 17 11 10 13 15 15 18 20 21 21 22 25 27 26 22 20 20 21 21 21 22 24 27 29 33 37 39 39 39 39 40 42 44 45 45
16 15 14 15 15 14 13 13 13 13 13 15 17 19 21 24 25 26 29 32 32 31 32 32 31 30 30 31 32 32 33 33 33 33 33 33 31 27 27 27 26 24 23 22 22 20 19 21 23 21 20 18 13 9 10 13 14 16 18 19 19 20 22 24 27 26 23 20 20 21 21 22 22 24 26 30 33 36 39 40 41 41 42 43 45 46 45
13 12 12 13 12 11 12 13 13 14 14 15 17 19 22 23 24 27 30 32 32 32 34 33 30 28 29 31 32 32 32 33 32 32 33 32 29 27 26 25 24 23 22 21 20 19 20 22 22 20 19 16 11 8 10 13 14 16 17 17 17 18 20 23 25 25 22 21 20 20 21 22 24 25 28 30 33 37 40 41 42 43 44 45 46 46 46
10 10 11 11 11 12 13 14 14 15 16 16 18 20 22 23 24 27 31 32 33 33 33 31 29 29 31 34 34 34 34 34 34 34 35 34 32 30 26 22 22 22 21 19 18 20 22 22 20 18 17 13 8 7 9 12 13 14 15 14 14 15 17 20 22 22 21 20 21 21 21 22 24 26 30 32 34 36 39 41 43 44 45 46 46 46 45
8 9 9 10 10 11 13 15 16 16 16 16 17 20 22 23 25 28 31 33 33 32 31 30 31 33 35 37 36 35 33 33 34 35 36 35 33 29 24 21 21 21 18 18 19 21 22 20 17 17 15 11 6 6 8 10 12 13 14 12 12 13 15 18 19 19 18 18 20 21 22 23 23 25 29 33 36 37 39 41 43 44 45 46 46 45 45
8 8 9 9 10 12 14 15 16 15 16 16 17 19 22 23 25 28 31 32 32 30 29 30 33 37 38 38 36 33 31 31 33 34 35 34 30 25 22 20 20 18 17 19 21 21 20 17 16 16 14 9 6 7 9 10 10 12 13 12 11 12 13 15 16 16 16 16 18 20 22 23 24 25 27 31 35 38 40 41 42 43 44 45 45 45 45
7 8 8 9 10 12 13 13 14 14 15 15 16 19 21 22 25 28 30 31 31 29 28 31 36 37 36 33 29 27 27 30 33 34 34 30 24 22 21 20 18 17 19 20 21 20 17 15 14 15 13 10 9 10 9 9 10 11 12 12 12 12 12 12 13 14 15 16 17 19 21 23 25 27 28 30 33 36 40 42 42 42 44 44 45 46 46
7 8 8 8 9 10 12 13 13 13 14 14 16 19 21 22 24 27 28 29 29 27 27 32 35 32 30 27 23 19 21 27 32 32 30 25 20 20 20 19 18 20 21 21 20 18 16 14 14 15 13 10 11 11 9 8 9 11 12 12 13 14 14 13 12 12 14 15 16 17 20 23 26 28 30 32 33 34 36 39 41 43 44 45 46 47 48
8 7 7 7 8 10 12 14 13 13 14 14 16 19 21 21 24 26 27 28 28 25 26 29 29 27 29 28 20 12 11 19 26 28 27 23 20 20 22 22 23 23 22 20 18 15 14 14 14 14 13 10 10 11 10 8 9 11 12 12 12 13 14 13 13 13 13 14 15 16 19 22 26 29 32 33 34 34 34 35 38 40 43 45 46 47 47
7 7 7 7 9 11 13 14 13 14 14 13 15 18 20 21 23 25 26 26 26 25 24 25 23 22 26 27 22 17 11 4 9 14 17 18 19 23 26 26 24 21 18 16 15 14 13 14 14 13 11 9 9 9 9 9 10 12 12 11 10 11 12 12 12 13 13 13 14 16 18 22 26 30 32 34 35 34 34 34 36 38 41 43 44 44 43
6 7 7 8 9 11 13 14 13 13 12 12 14 17 18 20 22 24 24 25 25 24 23 21 19 18 19 22 23 22 18 13 10 11 15 18 20 22 22 20 19 17 14 13 14 13 11 13 14 11 9 8 8 7 7 8 10 12 11 10 9 9 11 12 12 13 13 12 12 13 16 20 24 28 31 33 34 34 34 35 38 39 40 40 39 37 35
7 7 7 8 9 11 13 13 12 11 11 11 13 16 17 19 21 23 23 24 24 22 20 19 18 16 15 17 20 22 19 15 14 14 14 14 13 14 14 12 11 10 9 10 10 9 8 10 11 9 8 8 7 6 5 6 9 11 11 10 9 9 10 11 12 13 12 11 11 11 12 16 19 23 25 27 29 31 32 34 38 39 39 38 35 31 28
6 5 6 7 9 11 12 11 9 9 10 11 13 15 17 19 21 22 22 23 23 20 19 18 18 16 15 14 15 17 17 15 13 12 13 12 11 11 11 9 6 3 1 3 4 4 4 7 8 8 8 8 8 7 6 7 8 10 10 10 10 9 9 9 10 11 11 10 9 8 7 9 12 16 18 19 20 21 23 28 33 35 35 34 33 29 27
5 5 5 7 8 9 9 9 8 8 9 10 12 14 15 17 19 21 21 22 22 20 18 18 17 16 14 13 12 12 14 15 14 12 11 10 11 12 12 11 8 5 3 3 3 3 3 4 5 7 7 7 8 8 8 8 9 9 9 9 9 8 8 8 8 8 9 9 8 5 3 2 4 8 10 12 13 12 14 19 26 28 28 29 29 27 27
5 4 5 6 7 7 7 7 7 7 9 10 12 13 14 15 17 19 20 20 20 19 17 17 16 14 12 11 10 10 11 14 15 15 14 12 12 13 12 11 9 7 4 3 3 3 2 2 4 4 5 5 6 7 8 8 8 8 7 6 6 7 8 9 8 7 7 7 6 5 3 3 4 6 8 12 14 15 16 17 19 22 24 25 25 24 25
5 5 4 5 5 5 5 5 6 7 9 10 11 12 13 14 16 19 19 19 19 18 16 15 14 13 12 11 11 11 11 12 13 15 15 14 13 12 10 9 8 6 4 3 3 3 2 1 1 2 3 4 5 7 8 7 6 5 4 4 5 7 9 9 8 6 5 5 6 6 6 7 7 9 12 14 17 19 20 19 19 20 22 24 25 25 25
5 4 3 4 4 2 2 3 6 7 8 9 10 11 11 12 15 18 19 18 18 17 16 15 14 13 13 13 14 14 14 13 13 13 14 15 16 15 13 9 6 5 5 5 5 5 5 5 5 5 5 5 5 6 6 5 3 2 3 5 6 8 9 10 9 8 7 7 8 8 9 11 12 12 14 16 18 20 21 21 22 23 23 24 25 26 26
7 5 1 3 2 1 1 3 6 7 7 9 11 11 9 10 13 17 17 16 16 15 15 16 15 14 15 16 17 17 17 16 14 14 14 15 17 17 15 12 10 8 6 6 7 8 8 7 6 6 6 5 4 4 4 2 1 2 4 6 8 10 11 12 12 11 9 9 10 11 12 13 14 15 16 17 19 20 20 20 22 25 27 28 29 29 28
9 5 1 3 3 2 1 4 6 6 7 9 11 10 8 8 12 15 15 13 13 14 15 16 17 17 18 19 20 21 21 20 19 17 16 14 13 12 11 12 13 11 8 7 7 8 7 7 6 5 5 4 1 1 2 4 5 6 7 8 10 12 13 14 14 13 12 11 12 13 14 15 16 18 18 19 20 22 22 21 20 21 23 26 29 31 31
10 6 3 4 5 2 1 4 6 6 8 10 11 9 7 7 11 13 12 11 11 12 14 16 17 18 19 20 21 22 23 23 24 23 21 17 15 13 12 12 11 10 9 9 9 8 7 6 5 5 6 6 6 6 7 7 8 9 10 12 13 14 15 16 16 16 16 14 14 14 15 16 18 19 20 21 22 23 23 24 23 22 21 22 24 27 29
10 7 4 6 5 2 2 4 5 7 8 9 9 8 6 6 8 11 11 10 10 12 14 15 17 18 19 21 22 23 23 23 25 26 25 24 22 20 18 17 15 13 11 10 10 10 9 8 7 6 7 8 11 12 13 12 13 13 14 15 16 16 17 17 18 18 18 17 17 16 16 17 18 19 20 22 23 23 23 24 25 25 25 24 24 25 26
10 7 6 7 6 3 4 6 6 8 8 8 7 7 6 6 8 10 11 10 10 12 13 15 16 17 18 19 21 22 23 24 25 25 25 25 25 24 23 22 21 21 19 16 14 13 12 11 10 10 10 11 13 15 16 16 17 17 18 18 19 19 19 18 19 18 18 19 19 18 18 19 18 18 19 21 22 22 23 24 25 25 25 26 26 26 26
12 9 8 8 6 4 6 8 8 7 7 7 6 5 5 5 8 10 10 10 11 12 14 16 16 16 16 17 19 20 22 24 25 25 26 27 27 27 25 25 25 26 25 23 20 18 17 16 17 17 16 14 15 16 17 18 19 20 20 20 21 21 20 20 20 20 20 21 21 21 21 21 20 20 20 21 21 22 23 24 25 25 26 27 27 27 27
12 11 10 8 6 5 6 7 6 6 6 6 6 5 5 6 7 9 9 10 11 13 15 16 17 17 17 18 19 20 22 23 24 25 27 29 29 29 28 27 27 28 29 28 27 25 24 24 24 23 22 20 19 19 20 21 22 23 23 23 23 23 23 22 22 22 23 23 23 24 24 24 23 23 24 24 24 24 25 26 26 27 27 28 28 28 28
12 11 11 8 6 5 5 4 5 7 8 7 7 7 7 7 7 8 8 10 11 13 14 16 17 17 18 19 20 20 22 23 23 23 24 25 28 29 29 29 29 29 29 30 29 29 29 28 28 28 27 26 25 25 25 25 26 26 26 26 26 26 26 25 25 25 25 25 25 25 26 25 25 26 26 26 26 26 26 27 27 26 26 25 25 25 25
Wind_Direction
186 215 274 311 344 286 262 284 304 321 335 343 346 266 252 184 142 244 264 323 5 349 356 9 13 6 10 22 21 19 22 22 21 30 34 28 24 25 28 29 31 32 34 36 38 44 67 163 198 209 216 220 223 225 226 225 225 226 226 225 225 226 228 231 234 236 237 238 239 240 241 241 241 241 240 241 242 243 243 244 245 245 246 247 248 249 250
337 312 318 339 359 340 315 279 263 273 281 273 262 249 241 231 227 238 264 289 90 38 360 2 15 14 17 26 32 34 30 24 22 27 31 27 23 22 22 23 26 28 29 30 31 32 36 48 145 194 205 211 215 221 226 227 226 227 227 228 228 228 229 232 235 236 238 239 240 240 241 242 242 243 243 243 243 244 245 246 247 248 248 249 249 250 252
313 314 346 355 356 329 305 277 251 245 248 251 251 244 238 241 247 249 254 216 162 16 355 0 11 17 24 27 29 34 33 26 25 25 25 24 22 20 17 17 19 22 22 22 24 25 25 24 25 52 198 204 208 214 221 226 229 228 228 230 231 231 232 234 236 237 238 239 240 241 242 243 244 244 245 245 245 246 247 247 249 249 250 250 251 252 253
306 316 354 346 338 321 298 278 248 233 240 256 254 253 260 262 259 273 298 191 204 338 348 0 9 17 28 27 23 26 27 27 28 25 21 22 21 18 14 12 14 16 16 14 14 15 17 16 13 9 354 209 205 207 211 218 226 229 230 231 233 235 236 236 236 237 238 239 240 242 243 244 245 245 246 246 247 247 248 248 249 250 250 252 252 253 254
299 313 346 350 350 351 326 252 184 134 132 91 360 343 333 341 322 281 273 211 251 348 348 358 6 14 30 33 26 25 22 21 25 23 18 18 18 16 12 9 10 12 11 9 6 6 7 8 7 4 359 336 227 209 206 209 216 224 230 232 234 236 237 237 237 237 238 240 241 243 245 245 245 246 246 247 247 248 249 250 251 251 252 253 253 254 254
285 302 349 8 356 331 258 242 167 87 100 145 169 250 300 328 353 65 117 62 20 5 1 1 350 354 31 50 41 34 27 20 17 15 12 12 13 12 10 7 7 8 7 5 2 358 358 359 0 359 355 349 321 235 212 206 207 215 226 231 233 236 237 237 238 238 239 240 242 245 246 246 246 246 246 247 248 249 250 251 252 253 254 254 254 255 254
263 317 18 22 306 252 258 298 335 38 66 113 143 175 256 304 350 41 77 34 9 358 356 354 341 337 353 58 47 36 30 22 15 8 5 6 6 5 4 2 2 3 3 3 1 356 352 352 353 352 349 345 342 313 230 211 208 210 216 223 229 234 237 238 238 239 239 240 242 244 246 246 246 247 248 249 250 250 250 251 252 254 255 255 255 256 255
268 18 67 172 261 273 287 303 310 338 36 68 84 336 257 260 343 41 75 355 348 351 347 346 341 333 319 253 55 26 17 13 11 5 359 358 357 355 356 359 359 358 357 359 1 359 355 351 349 347 343 338 340 339 291 224 217 215 215 218 221 226 233 238 239 240 241 241 242 243 244 244 245 246 248 249 250 250 250 250 252 254 255 256 256 256 255
135 138 213 253 322 319 307 309 336 28 27 20 47 295 257 230 211 251 222 294 325 344 346 345 344 339 319 219 190 359 357 357 358 355 352 351 349 347 350 354 355 352 350 352 356 356 356 353 347 345 342 335 334 339 332 266 230 223 220 222 221 221 225 232 237 241 242 242 242 242 242 242 244 246 248 250 250 250 250 250 251 252 254 256 258 257 256
120 140 263 305 330 296 280 293 340 6 358 333 313 296 270 232 251 341 333 296 322 344 351 349 351 350 338 197 221 330 344 346 345 342 340 341 341 342 346 348 347 346 344 345 348 350 350 350 347 344 340 335 333 339 341 321 255 231 226 226 226 224 226 229 232 236 238 240 241 241 241 242 245 247 248 249 251 251 251 251 252 253 254 256 259 259 257
102 146 231 248 230 245 253 273 318 343 347 339 328 296 268 290 355 356 353 323 335 359 4 359 3 5 358 228 298 326 334 336 336 334 332 331 331 335 341 344 340 338 338 337 338 342 343 343 344 343 337 334 334 338 343 337 294 255 243 233 228 228 230 231 233 233 233 236 238 239 241 244 246 248 249 250 251 251 252 253 253 254 254 255 257 259 259
200 199 234 237 227 246 249 272 312 327 340 352 348 275 261 346 348 347 340 327 339 1 6 6 17 22 291 288 305 319 324 325 327 329 328 327 325 325 332 338 334 329 330 330 331 335 339 339 341 340 334 331 332 335 339 339 323 292 273 256 242 235 233 232 235 236 235 236 237 238 240 243 245 247 249 250 251 251 252 253 253 253 254 254 255 258 259
220 224 241 260 260 234 223 283 318 327 342 24 213 230 290 343 339 344 341 327 334 345 346 345 326 290 294 298 305 313 318 318 321 324 324 322 319 318 321 326 328 324 322 324 325 326 331 335 337 337 331 328 329 330 333 336 333 321 301 280 262 251 244 237 235 237 238 239 239 240 241 243 245 247 249 250 251 252 252 253 252 252 253 253 254 257 258
226 230 233 272 278 228 210 307 323 325 306 180 230 306 344 342 335 345 341 325 327 327 322 316 301 297 302 301 303 309 313 314 317 319 320 320 318 316 311 311 318 320 317 319 319 317 321 329 333 334 331 327 326 326 328 333 333 329 320 300 278 263 256 248 242 239 238 238 241 242 242 242 244 246 248 249 251 252 252 252 252 252 253 253 253 255 256
185 219 236 265 267 206 117 356 352 166 184 257 310 327 336 336 339 342 331 322 323 320 315 312 307 304 305 303 303 306 308 310 312 312 314 317 317 316 310 304 308 313 312 313 314 312 314 321 328 330 329 327 325 324 326 330 331 328 323 313 295 276 263 256 251 247 243 240 242 245 245 243 242 243 246 247 249 251 251 250 250 250 252 252 252 253 254
149 169 215 226 194 158 131 56 231 240 276 301 312 318 321 327 332 329 322 318 317 313 311 309 306 305 305 303 303 304 305 306 307 307 309 311 314 315 311 303 302 306 308 306 306 306 308 315 323 328 328 326 324 324 325 327 328 326 322 317 308 292 273 259 253 252 250 246 244 246 249 247 243 242 244 245 247 249 249 248 247 248 249 250 250 251 252
178 201 232 234 216 226 259 255 253 271 287 291 294 302 310 318 321 320 318 316 313 310 307 303 302 302 302 302 302 302 301 301 302 303 305 307 309 311 310 305 300 300 303 302 301 301 304 311 320 325 327 326 323 322 325 325 323 323 321 317 312 303 288 268 254 250 251 250 247 246 248 248 245 243 243 244 245 246 246 246 245 246 248 249 249 250 252
272 266 257 254 261 269 267 253 251 270 277 272 277 290 301 310 314 313 314 313 310 308 306 301 299 298 299 301 300 298 298 299 299 300 301 302 304 306 307 305 301 297 297 298 298 297 299 306 317 322 324 325 322 320 322 323 320 318 318 317 312 307 299 284 264 252 248 248 248 248 247 248 248 245 243 243 243 243 243 243 244 246 247 247 249 250 251
272 274 254 241 245 250 248 248 263 274 273 266 269 283 297 305 308 308 308 309 306 303 302 301 299 297 297 299 298 297 297 297 297 299 299 299 301 302 302 303 303 298 295 295 297 296 295 301 314 320 321 322 321 317 316 318 317 314 315 315 311 308 304 294 281 265 253 248 249 249 248 248 249 249 246 243 241 241 242 242 244 246 247 246 246 248 250
203 257 267 260 253 253 260 273 278 277 272 267 272 287 298 301 303 304 305 305 304 302 302 302 300 297 295 295 295 295 295 295 295 296 296 296 297 297 297 299 300 297 293 293 295 295 293 298 310 317 318 321 320 314 311 313 312 309 311 313 312 310 308 302 293 281 268 257 253 251 250 248 248 249 248 244 240 241 242 242 243 246 247 247 248 249 252
249 281 276 272 274 274 269 270 274 274 273 275 283 293 298 299 300 302 303 304 304 302 302 302 301 297 294 293 293 292 292 291 292 293 295 295 294 293 293 295 296 293 290 290 293 292 290 295 304 309 313 318 320 313 308 308 307 306 308 312 312 311 311 309 302 289 274 264 259 257 254 251 248 248 249 248 246 246 248 248 248 249 251 251 252 254 255
259 257 250 246 254 269 265 267 275 280 281 285 289 292 295 298 299 301 304 305 305 303 301 300 299 295 292 291 291 290 289 289 289 291 293 293 292 291 290 291 292 289 284 287 290 288 286 292 301 304 308 315 318 314 306 303 303 304 306 308 308 308 309 310 308 294 274 263 259 259 258 255 252 251 250 249 250 250 252 254 255 255 254 254 255 257 256
234 244 249 242 231 248 267 279 286 285 285 288 290 292 294 296 297 301 303 304 305 304 302 299 296 292 291 290 289 288 287 287 287 289 290 291 291 290 288 288 289 286 281 283 287 285 284 290 297 300 304 310 316 313 305 300 300 302 302 301 301 304 305 306 307 298 278 263 259 258 257 256 255 254 250 248 248 249 251 254 254 254 254 254 256 257 257
235 251 259 256 247 258 274 285 286 283 285 288 288 290 293 295 298 300 301 302 303 301 299 298 294 291 289 288 287 286 286 286 286 286 286 287 289 287 284 284 286 285 280 282 285 286 285 287 292 295 299 307 313 310 302 299 300 298 295 293 294 299 302 301 301 297 283 269 262 259 256 255 254 253 249 246 245 246 248 250 250 249 250 251 253 254 255
243 254 261 265 266 272 280 282 276 276 284 288 287 288 292 296 298 299 301 303 302 298 295 294 292 290 288 287 286 285 285 285 284 284 283 283 282 281 279 279 281 281 280 281 284 284 283 285 289 291 294 303 311 307 299 296 295 290 287 285 287 293 299 297 294 291 283 273 265 259 257 256 255 251 247 244 243 244 246 248 247 246 245 247 249 251 252
247 253 260 268 271 271 271 269 268 276 288 290 286 288 293 296 297 299 305 308 305 299 295 293 292 291 289 287 286 285 285 285 284 281 280 278 277 276 276 276 275 275 275 277 280 280 280 284 287 288 292 302 308 303 294 292 289 281 279 278 280 289 297 297 291 286 280 272 264 257 254 256 257 253 248 245 244 244 244 245 245 244 243 244 246 248 249
244 246 251 258 261 262 262 263 270 282 291 290 287 290 295 296 297 304 313 315 311 305 299 296 295 293 290 287 287 286 284 283 281 278 275 274 274 274 275 275 273 270 270 274 278 278 278 283 285 286 292 301 305 301 292 288 285 277 272 271 275 285 296 298 294 289 281 271 264 256 250 250 253 255 253 249 247 245 244 244 245 246 246 246 246 246 247
240 241 242 246 256 265 270 274 280 287 290 289 288 293 297 298 303 313 319 318 314 308 301 297 295 294 292 290 288 286 285 283 280 276 273 273 273 272 273 273 269 265 266 271 274 274 275 280 281 283 289 297 304 306 296 287 286 282 275 271 271 280 290 295 295 291 282 269 260 256 250 246 248 254 255 253 250 247 246 246 247 249 250 250 249 248 247
237 240 242 247 259 273 281 283 286 290 291 291 292 296 301 303 309 318 321 319 315 309 301 298 296 295 296 296 291 287 285 282 279 276 275 275 273 271 271 269 264 259 261 267 268 269 272 276 277 280 287 296 304 312 303 294 290 287 281 275 273 276 282 286 288 287 281 269 258 255 252 247 245 248 252 253 251 249 247 246 247 249 250 251 250 248 246
232 235 242 252 265 277 281 286 293 298 298 297 297 302 306 308 312 318 322 321 316 309 303 302 299 297 299 299 293 285 280 278 275 274 273 272 270 268 268 265 258 253 256 262 264 265 269 273 275 277 286 295 302 306 306 305 301 293 286 278 274 275 278 280 281 281 278 269 260 255 252 248 245 245 248 250 251 249 247 247 247 247 248 248 249 248 248
233 240 251 263 274 280 282 289 296 299 299 301 302 306 310 311 313 319 323 322 317 311 307 306 303 300 300 298 292 285 280 276 273 272 270 268 264 262 262 257 249 248 254 259 259 262 267 271 272 274 281 291 296 296 304 313 316 311 302 287 275 270 272 275 278 279 276 269 261 256 252 247 245 245 246 247 248 248 247 247 246 246 245 246 247 248 248
240 248 260 270 276 279 283 288 293 295 298 301 304 309 313 314 316 320 322 321 318 313 310 309 308 306 303 299 293 287 282 276 272 270 268 265 260 255 249 243 241 246 252 252 253 259 266 269 267 268 277 289 290 286 298 310 320 328 327 311 290 277 272 272 275 276 275 269 262 257 253 248 244 244 245 246 246 247 247 247 246 245 245 245 246 247 246
239 249 261 268 270 272 280 289 292 293 298 302 306 314 317 317 318 320 321 321 319 315 312 314 314 312 307 302 296 289 281 274 270 266 264 263 258 244 233 236 241 241 240 242 248 257 263 263 261 265 277 294 297 288 298 313 322 333 340 333 316 300 287 280 277 276 274 268 261 257 255 251 248 247 246 245 246 247 248 248 247 247 247 246 246 247 246
251 256 260 266 269 272 282 293 294 294 299 304 310 317 319 319 320 323 324 323 319 315 316 321 320 317 315 312 305 294 279 269 264 261 260 257 245 227 224 235 238 226 223 233 246 255 258 258 258 262 272 294 306 298 306 329 337 337 343 345 337 326 313 297 286 279 274 268 261 257 255 253 252 252 251 250 249 248 248 248 248 248 248 247 247 248 248
248 251 258 269 278 281 288 293 294 296 301 305 311 319 322 321 323 326 328 326 321 319 325 329 327 328 334 334 323 303 282 268 261 258 255 248 235 226 230 229 215 207 216 233 246 253 256 256 257 258 265 289 309 307 308 334 348 346 348 353 350 342 333 323 311 295 281 272 264 260 258 255 253 253 254 255 255 254 253 251 250 249 249 248 248 248 249
240 253 267 281 290 292 293 294 294 298 300 302 310 320 323 322 325 331 334 331 327 327 332 334 336 344 353 351 347 340 307 279 267 259 253 246 234 223 216 205 198 204 221 235 243 249 250 250 253 256 262 284 313 316 313 329 349 354 355 357 354 348 341 335 328 317 300 284 272 265 261 258 256 253 252 253 255 257 257 256 253 252 251 251 250 249 248
252 270 277 286 294 294 293 293 294 298 301 304 314 323 323 322 328 335 338 334 331 332 336 340 346 355 357 356 6 29 39 326 260 238 221 206 192 187 187 188 193 206 221 233 242 249 248 244 246 252 262 284 313 321 317 327 346 355 359 1 1 360 357 350 340 330 320 307 291 277 268 264 260 256 253 250 250 251 254 256 257 255 254 253 252 251 249
269 277 277 286 295 295 293 292 294 299 304 310 319 326 326 325 330 337 339 337 335 336 341 349 358 2 358 357 8 29 50 72 94 120 144 155 161 167 172 179 190 204 221 240 251 254 246 237 238 247 264 287 311 321 321 331 341 347 355 4 10 14 17 12 1 347 334 323 313 297 282 273 267 261 257 252 248 244 245 249 252 252 250 248 246 245 243
273 277 283 297 305 300 294 291 295 305 313 319 325 329 329 329 335 340 340 338 339 340 345 354 4 8 7 8 14 24 38 57 71 81 93 110 130 143 147 156 177 202 231 254 262 261 246 232 233 246 267 287 301 310 320 331 334 335 346 0 9 16 21 19 9 357 342 328 318 306 290 279 270 262 256 251 246 241 239 241 244 245 245 243 240 236 232
269 280 296 309 312 304 294 287 295 312 322 326 330 331 330 332 339 343 342 341 342 343 345 351 0 7 13 19 23 27 34 44 57 69 73 77 88 101 104 106 120 153 239 287 295 293 262 237 237 249 268 285 297 300 306 321 327 329 339 352 3 13 23 23 13 2 349 335 323 310 295 279 266 255 245 237 233 230 229 231 235 237 237 236 233 228 221
262 281 301 312 312 305 292 284 293 315 327 329 330 331 331 335 342 346 343 342 345 346 347 349 354 358 5 13 23 32 38 42 48 58 65 64 63 64 63 64 68 68 47 6 345 329 296 266 255 253 260 281 297 301 306 317 322 324 333 347 2 20 36 40 32 18 2 350 343 337 327 285 242 231 222 210 199 186 187 204 215 217 214 213 213 209 204
253 274 297 317 318 307 293 286 295 316 330 332 331 332 333 336 344 348 346 345 347 350 352 354 356 358 2 6 15 30 40 42 46 51 55 58 60 58 53 50 49 47 34 5 354 353 332 289 265 253 258 278 296 310 321 323 318 318 329 351 16 36 49 54 51 39 19 5 10 26 46 86 135 149 158 168 167 153 144 158 178 184 185 189 192 189 185
247 264 290 328 328 303 291 300 309 319 331 337 338 338 337 339 345 350 351 350 351 354 357 360 2 8 15 17 21 30 34 38 44 48 48 50 54 56 54 52 51 50 48 33 16 19 30 26 335 330 327 312 308 317 323 317 310 319 345 20 46 57 63 66 63 57 47 39 48 65 80 95 112 119 122 132 143 141 131 125 134 148 160 168 172 170 167
233 246 285 349 347 293 279 330 333 334 345 352 348 342 340 343 347 351 355 355 354 356 3 7 9 15 23 27 31 35 35 35 40 45 45 44 43 41 37 38 44 51 57 54 43 36 39 44 40 25 10 357 337 321 309 296 290 343 35 57 67 73 78 79 76 73 71 68 72 82 93 100 106 110 110 113 123 131 129 117 112 118 132 144 150 152 151
216 228 280 21 36 186 235 323 332 340 359 1 351 345 348 351 351 355 359 359 357 0 11 19 26 34 39 39 41 44 43 40 40 41 42 43 41 36 31 29 30 33 43 52 49 43 41 40 36 28 21 12 347 309 283 254 172 111 89 83 83 83 84 84 83 82 82 83 87 93 99 102 105 108 109 109 111 117 122 120 113 110 115 125 133 138 140
203 210 191 74 94 143 248 306 321 340 3 1 351 349 355 357 357 1 6 6 5 14 28 37 42 47 50 50 50 51 51 50 49 49 47 46 45 42 38 36 34 33 37 48 53 52 49 44 40 45 52 55 53 207 177 140 125 117 108 100 94 91 89 89 90 91 93 95 97 100 104 108 109 108 110 111 110 111 116 121 118 111 107 112 120 125 128
195 197 160 106 114 132 315 320 321 338 359 359 350 348 355 2 5 9 13 12 16 32 49 54 52 50 51 51 50 51 51 51 52 52 52 52 52 52 48 43 40 39 45 54 60 61 59 57 60 70 85 98 109 115 115 113 111 108 105 101 98 96 95 95 97 100 102 104 105 106 107 110 111 111 112 113 112 113 114 116 115 112 107 104 107 111 115
187 183 145 118 122 118 21 357 342 347 360 1 354 353 8 21 20 18 19 22 33 51 60 58 52 52 54 53 53 54 54 53 52 53 53 54 55 55 53 49 48 48 52 62 69 69 66 66 73 83 96 106 108 106 106 107 105 102 99 96 94 94 95 96 99 103 106 108 110 112 112 110 110 111 112 111 111 112 113 113 112 113 112 108 105 104 104
175 165 141 128 130 114 49 33 15 3 5 7 4 9 25 39 35 28 27 36 50 57 55 50 50 55 57 56 55 57 58 58 59 60 59 58 58 58 58 58 57 56 57 62 69 72 73 76 81 85 90 97 101 101 102 103 102 100 98 96 94 93 94 96 99 103 106 107 109 110 111 110 109 109 108 107 107 108 107 106 105 104 102 100 99 99 100
164 155 143 135 132 106 58 40 26 12 13 23 29 33 46 52 43 35 37 50 59 57 52 52 56 59 61 60 61 61 60 61 63 66 67 65 64 63 63 63 63 62 62 63 66 70 73 76 79 81 82 85 89 91 93 94 94 93 92 93 93 93 94 97 99 100 101 102 103 103 103 103 104 104 102 101 100 98 96 95 94 93 92 92 92 92 94
161 154 147 138 126 95 62 44 30 20 22 30 34 40 54 63 54 46 48 58 63 62 60 62 64 65 65 66 65 63 62 62 64 66 68 69 67 66 65 66 67 67 66 66 67 68 69 70 72 75 77 79 81 83 84 86 87 88 88 88 90 90 91 92 94 95 96 98 99 99 100 100 101 101 100 99 97 96 96 94 93 92 90 89 88 87 87
156 151 148 142 125 101 85 69 44 29 24 27 38 49 58 64 64 62 66 70 72 72 72 70 67 66 66 66 65 63 61 61 61 63 66 68 67 65 64 65 67 69 70 69 68 68 68 69 71 74 77 79 80 81 81 81 82 83 84 85 86 87 88 89 90 92 93 95 96 97 99 100 100 100 101 101 100 100 100 99 98 96 93 90 89 88 88
Height
1536 1535 1534 1534 1534 1535 1533 1533 1532 1530 1528 1528 1529 1529 1525 1526 1530 1526 1520 1522 1526 1525 1520 1516 1515 1513 1512 1511 1510 1507 1505 1503 1501 1498 1496 1495 1494 1492 1491 1490 1488 1487 1486 1486 1486 1486 1487 1487 1489 1491 1493 1496 1499 1500 1502 1503 1505 1507 1509 1511 1512 1514 1515 1516 1518 1520 1523 1525 1527 1529 1532 1534 1536 1538 1540 1542 1545 1547 1548 1550 1552 1554 1556 1558 1560 1561 1563
1536 1535 1534 1533 1533 1534 1534 1533 1532 1530 1529 1527 1527 1526 1522 1522 1524 1521 1518 1521 1524 1525 1522 1518 1516 1516 1515 1514 1512 1509 1507 1505 1504 1501 1499 1498 1498 1496 1495 1494 1493 1491 1490 1489 1489 1489 1488 1488 1488 1489 1491 1493 1495 1497 1500 1501 1503 1505 1507 1509 1510 1512 1513 1514 1516 1519 1521 1523 1525 1527 1529 1531 1533 1535 1537 1539 1542 1543 1545 1547 1549 1551 1553 1555 1556 1557 1559
1535 1534 1534 1533 1534 1535 1535 1533 1531 1529 1528 1526 1524 1523 1521 1519 1519 1518 1519 1521 1522 1523 1521 1519 1518 1517 1515 1513 1512 1510 1510 1509 1506 1504 1502 1501 1500 1499 1498 1497 1496 1494 1492 1492 1491 1491 1490 1490 1490 1489 1489 1490 1492 1494 1497 1499 1501 1502 1504 1505 1507 1508 1509 1511 1514 1517 1518 1520 1522 1524 1525 1527 1529 1532 1534 1536 1538 1540 1542 1544 1546 1547 1549 1551 1552 1554 1555
1536 1533 1533 1533 1531 1531 1531 1531 1529 1527 1526 1525 1524 1522 1521 1519 1518 1517 1518 1520 1522 1523 1521 1519 1519 1517 1515 1514 1513 1512 1512 1511 1509 1507 1506 1504 1502 1501 1501 1500 1498 1496 1494 1493 1493 1493 1493 1492 1492 1491 1490 1489 1490 1492 1494 1496 1499 1500 1501 1501 1503 1504 1506 1509 1511 1513 1515 1517 1519 1520 1522 1523 1525 1528 1531 1533 1535 1537 1538 1540 1542 1544 1545 1546 1548 1550 1552
1538 1534 1532 1531 1529 1528 1528 1528 1528 1527 1526 1525 1523 1523 1522 1521 1521 1520 1520 1522 1524 1524 1522 1520 1519 1518 1517 1516 1514 1513 1513 1512 1511 1510 1509 1507 1504 1503 1503 1502 1500 1498 1496 1495 1495 1495 1494 1494 1493 1492 1491 1490 1489 1489 1490 1492 1495 1497 1498 1498 1499 1501 1503 1506 1508 1510 1512 1514 1515 1517 1518 1520 1522 1525 1527 1529 1531 1533 1534 1537 1539 1540 1541 1543 1544 1546 1548
1540 1536 1533 1532 1533 1532 1527 1524 1524 1526 1526 1525 1524 1523 1523 1523 1523 1523 1523 1524 1525 1524 1523 1523 1521 1520 1519 1518 1516 1515 1514 1513 1512 1512 1511 1508 1505 1505 1505 1505 1502 1500 1498 1497 1496 1496 1495 1495 1494 1493 1492 1491 1489 1488 1488 1489 1491 1493 1495 1496 1497 1498 1500 1502 1504 1507 1509 1511 1512 1514 1516 1518 1520 1522 1524 1525 1527 1529 1531 1533 1535 1536 1537 1539 1540 1542 1543
1542 1538 1537 1538 1537 1532 1525 1521 1521 1523 1524 1524 1524 1524 1525 1524 1524 1523 1524 1525 1525 1524 1524 1523 1522 1522 1521 1520 1517 1515 1514 1513 1512 1511 1511 1509 1507 1507 1508 1507 1504 1501 1499 1498 1497 1495 1495 1496 1495 1493 1492 1491 1489 1488 1488 1488 1489 1490 1492 1494 1495 1497 1498 1499 1501 1503 1505 1507 1509 1511 1513 1515 1517 1518 1520 1522 1523 1525 1527 1529 1530 1532 1533 1535 1536 1537 1539
1543 1543 1545 1542 1534 1527 1524 1522 1521 1521 1522 1523 1525 1526 1525 1525 1524 1524 1524 1525 1525 1524 1523 1523 1522 1521 1520 1519 1518 1516 1515 1514 1513 1512 1511 1510 1510 1510 1509 1507 1504 1502 1500 1498 1497 1495 1496 1496 1495 1493 1492 1490 1490 1489 1488 1487 1487 1488 1489 1491 1492 1494 1496 1497 1499 1500 1501 1503 1505 1507 1509 1511 1513 1514 1516 1517 1519 1522 1523 1525 1526 1528 1529 1530 1531 1532 1534
1544 1546 1547 1541 1535 1532 1527 1523 1523 1525 1525 1525 1527 1527 1525 1523 1524 1524 1523 1524 1524 1523 1522 1521 1520 1518 1517 1517 1517 1515 1515 1514 1514 1514 1513 1512 1511 1510 1508 1506 1504 1503 1501 1498 1497 1496 1496 1496 1495 1493 1492 1491 1490 1489 1488 1486 1486 1486 1487 1488 1489 1491 1493 1495 1497 1498 1499 1499 1501 1503 1505 1507 1509 1510 1512 1514 1516 1518 1520 1521 1522 1523 1524 1526 1527 1528 1530
1543 1546 1547 1545 1544 1541 1532 1528 1528 1528 1528 1527 1528 1528 1525 1522 1523 1523 1522 1523 1523 1522 1522 1520 1518 1516 1515 1515 1516 1515 1515 1514 1514 1513 1513 1512 1511 1509 1506 1504 1503 1502 1501 1498 1497 1497 1495 1496 1496 1493 1491 1490 1489 1488 1487 1485 1485 1485 1485 1486 1487 1488 1489 1491 1494 1495 1497 1498 1499 1500 1502 1503 1505 1506 1508 1510 1512 1514 1516 1517 1518 1520 1521 1522 1523 1524 1525
1545 1547 1549 1548 1546 1540 1533 1530 1530 1529 1528 1527 1528 1530 1527 1522 1522 1523 1522 1522 1522 1522 1522 1520 1518 1517 1517 1516 1516 1515 1515 1514 1513 1512 1511 1510 1509 1507 1505 1503 1501 1501 1500 1498 1497 1496 1495 1494 1494 1492 1491 1490 1489 1487 1485 1484 1483 1483 1483 1483 1484 1485 1486 1488 1489 1491 1493 1494 1496 1497 1498 1500 1501 1503 1505 1507 1509 1511 1512 1513 1514 1516 1517 1518 1519 1519 1520
1546 1547 1548 1545 1540 1535 1532 1531 1530 1529 1528 1527 1531 1534 1529 1523 1523 1524 1522 1522 1522 1522 1522 1521 1520 1521 1520 1518 1516 1515 1515 1514 1513 1512 1510 1508 1506 1505 1504 1503 1501 1499 1498 1496 1495 1494 1493 1493 1492 1490 1490 1489 1487 1485 1484 1483 1481 1481 1481 1481 1482 1483 1484 1485 1486 1487 1488 1490 1492 1494 1495 1497 1498 1500 1502 1504 1505 1507 1508 1509 1510 1512 1513 1514 1514 1515 1516
1547 1546 1546 1543 1536 1531 1530 1530 1528 1528 1528 1530 1534 1533 1526 1523 1524 1523 1522 1523 1522 1521 1522 1521 1520 1521 1520 1518 1516 1515 1514 1512 1511 1511 1510 1507 1506 1504 1502 1501 1501 1499 1496 1494 1493 1492 1492 1492 1491 1489 1487 1486 1485 1484 1482 1480 1479 1479 1479 1479 1480 1480 1481 1481 1483 1484 1485 1486 1488 1490 1492 1494 1495 1497 1498 1500 1501 1503 1504 1505 1506 1507 1508 1509 1510 1511 1512
1547 1546 1545 1543 1536 1530 1528 1528 1527 1528 1529 1531 1530 1526 1524 1525 1524 1523 1522 1522 1521 1521 1521 1520 1520 1519 1518 1516 1514 1513 1512 1511 1509 1508 1507 1506 1504 1503 1501 1499 1499 1497 1494 1492 1491 1491 1491 1491 1490 1488 1486 1484 1483 1482 1480 1478 1476 1476 1476 1477 1477 1477 1478 1479 1480 1480 1482 1483 1484 1485 1488 1489 1491 1492 1494 1496 1497 1498 1500 1501 1502 1503 1504 1505 1506 1506 1508
1546 1548 1547 1544 1536 1529 1527 1527 1527 1527 1528 1527 1525 1523 1524 1524 1523 1522 1522 1521 1520 1520 1518 1517 1517 1517 1515 1514 1512 1511 1510 1509 1507 1505 1505 1504 1502 1500 1499 1497 1496 1494 1492 1490 1489 1489 1489 1489 1487 1485 1483 1481 1480 1479 1477 1475 1473 1473 1473 1474 1474 1474 1475 1476 1477 1477 1478 1480 1481 1482 1483 1485 1486 1487 1489 1491 1492 1494 1495 1496 1497 1498 1499 1500 1501 1502 1503
1542 1546 1543 1535 1528 1525 1526 1527 1527 1526 1525 1524 1523 1523 1523 1522 1522 1522 1521 1519 1519 1519 1517 1515 1514 1513 1513 1512 1510 1508 1507 1506 1505 1503 1501 1501 1499 1498 1496 1495 1493 1492 1490 1488 1487 1487 1487 1486 1484 1482 1480 1477 1476 1475 1474 1472 1471 1470 1470 1471 1471 1471 1472 1472 1473 1474 1475 1476 1478 1479 1480 1481 1482 1483 1484 1486 1487 1489 1490 1491 1492 1493 1494 1496 1497 1497 1498
1534 1534 1529 1524 1522 1523 1525 1525 1524 1524 1524 1523 1523 1522 1521 1521 1520 1519 1518 1517 1517 1516 1515 1513 1511 1510 1510 1509 1508 1506 1504 1503 1502 1501 1498 1497 1496 1495 1493 1492 1490 1489 1487 1485 1483 1483 1482 1481 1479 1477 1476 1473 1472 1471 1470 1469 1468 1467 1466 1467 1468 1468 1468 1469 1469 1470 1470 1472 1473 1475 1476 1477 1478 1478 1480 1481 1482 1484 1485 1486 1488 1488 1489 1491 1492 1492 1493
1530 1525 1521 1521 1521 1521 1522 1522 1522 1522 1522 1522 1521 1520 1520 1519 1518 1517 1516 1515 1514 1513 1513 1511 1508 1506 1506 1506 1504 1503 1501 1499 1498 1497 1495 1493 1492 1491 1490 1489 1488 1487 1484 1481 1479 1477 1477 1476 1474 1471 1471 1470 1469 1468 1467 1466 1465 1464 1463 1464 1464 1465 1465 1465 1465 1465 1466 1466 1468 1470 1472 1473 1473 1474 1475 1476 1477 1479 1480 1482 1483 1484 1484 1486 1486 1487 1488
1529 1523 1518 1518 1519 1519 1520 1521 1520 1520 1520 1519 1519 1518 1517 1516 1516 1515 1513 1512 1511 1510 1510 1508 1506 1503 1502 1502 1501 1499 1498 1495 1494 1493 1492 1490 1488 1488 1487 1485 1485 1484 1482 1479 1477 1474 1472 1471 1469 1467 1466 1466 1466 1465 1463 1462 1461 1460 1460 1460 1461 1461 1461 1460 1460 1460 1460 1461 1463 1464 1466 1468 1469 1470 1471 1472 1473 1474 1476 1477 1478 1479 1480 1481 1482 1483 1484
1527 1522 1517 1517 1518 1518 1518 1518 1518 1518 1518 1517 1517 1516 1515 1514 1513 1512 1511 1509 1508 1507 1506 1506 1503 1500 1498 1498 1497 1495 1494 1492 1490 1489 1488 1486 1485 1483 1482 1482 1481 1480 1479 1477 1475 1472 1469 1467 1465 1464 1463 1463 1463 1462 1460 1459 1457 1456 1455 1456 1457 1457 1457 1456 1455 1455 1455 1456 1458 1459 1461 1462 1463 1464 1465 1467 1468 1469 1470 1472 1473 1474 1475 1475 1476 1478 1479
1524 1520 1516 1516 1516 1515 1515 1515 1515 1515 1515 1515 1514 1514 1513 1511 1510 1509 1507 1506 1505 1504 1503 1502 1500 1496 1493 1493 1493 1492 1490 1488 1487 1485 1484 1483 1481 1479 1478 1478 1477 1476 1476 1474 1472 1469 1467 1465 1463 1461 1461 1461 1461 1460 1458 1456 1454 1451 1450 1451 1452 1453 1452 1451 1450 1450 1451 1452 1453 1454 1455 1457 1458 1459 1460 1461 1463 1463 1465 1466 1467 1468 1469 1470 1471 1473 1474
1522 1516 1512 1513 1514 1513 1512 1513 1513 1513 1513 1512 1511 1510 1510 1508 1507 1506 1504 1502 1501 1500 1499 1498 1497 1493 1489 1488 1489 1488 1486 1484 1483 1482 1481 1480 1477 1475 1474 1474 1473 1473 1473 1472 1470 1468 1466 1464 1462 1459 1458 1458 1458 1458 1456 1453 1450 1448 1447 1448 1449 1449 1448 1448 1447 1447 1447 1447 1449 1450 1451 1452 1453 1454 1455 1456 1457 1458 1459 1461 1461 1463 1464 1465 1466 1469 1470
1514 1509 1508 1510 1511 1509 1509 1510 1510 1510 1510 1509 1508 1507 1506 1506 1504 1503 1501 1499 1496 1495 1494 1493 1492 1489 1486 1484 1484 1483 1481 1481 1480 1478 1477 1477 1474 1471 1471 1470 1469 1469 1469 1469 1468 1467 1465 1463 1462 1459 1456 1455 1456 1455 1453 1450 1447 1445 1445 1446 1446 1446 1445 1444 1444 1444 1443 1444 1445 1446 1446 1447 1448 1448 1449 1451 1452 1453 1454 1455 1456 1457 1458 1460 1462 1464 1465
1507 1505 1506 1508 1507 1506 1506 1507 1508 1507 1507 1507 1505 1504 1504 1503 1502 1500 1499 1496 1493 1490 1488 1487 1487 1485 1483 1481 1480 1478 1476 1476 1476 1474 1473 1473 1471 1469 1467 1466 1466 1466 1466 1466 1465 1465 1464 1463 1461 1458 1456 1455 1454 1452 1450 1447 1444 1443 1443 1444 1444 1443 1442 1441 1440 1440 1440 1440 1441 1442 1442 1442 1443 1443 1444 1445 1446 1447 1448 1449 1450 1451 1453 1455 1458 1459 1461
1504 1503 1504 1505 1505 1504 1504 1505 1504 1505 1505 1504 1503 1502 1501 1500 1499 1497 1496 1493 1490 1488 1484 1482 1481 1481 1479 1477 1475 1473 1472 1471 1472 1470 1468 1467 1467 1466 1464 1463 1463 1463 1463 1463 1462 1461 1461 1461 1459 1457 1455 1453 1452 1450 1447 1445 1443 1441 1441 1441 1441 1439 1438 1436 1436 1436 1436 1436 1437 1437 1437 1438 1438 1438 1439 1439 1440 1441 1443 1444 1445 1447 1448 1450 1452 1454 1455
1501 1502 1503 1504 1503 1502 1503 1502 1502 1502 1502 1501 1500 1499 1498 1497 1496 1494 1492 1489 1487 1484 1482 1479 1477 1476 1475 1472 1471 1469 1467 1466 1467 1466 1464 1462 1462 1461 1460 1459 1459 1459 1460 1459 1459 1458 1457 1456 1455 1454 1452 1451 1451 1448 1445 1442 1441 1439 1439 1439 1437 1435 1434 1432 1432 1432 1432 1432 1433 1433 1433 1433 1434 1434 1434 1434 1435 1437 1438 1440 1441 1442 1443 1445 1446 1448 1449
1499 1501 1502 1502 1500 1500 1500 1500 1499 1499 1499 1498 1497 1496 1496 1495 1493 1491 1488 1485 1482 1480 1477 1475 1473 1471 1470 1468 1466 1464 1463 1462 1462 1461 1459 1457 1456 1456 1456 1455 1455 1455 1456 1455 1455 1455 1454 1453 1451 1450 1449 1448 1447 1445 1442 1439 1438 1436 1436 1436 1434 1431 1429 1428 1428 1427 1428 1428 1429 1429 1429 1429 1429 1430 1430 1430 1431 1432 1434 1435 1436 1437 1438 1439 1441 1442 1444
1498 1499 1499 1499 1498 1498 1498 1498 1498 1497 1497 1496 1495 1494 1493 1491 1490 1487 1484 1481 1478 1476 1473 1471 1470 1468 1466 1464 1462 1460 1458 1457 1456 1455 1454 1452 1451 1452 1452 1451 1451 1451 1451 1451 1451 1451 1451 1450 1448 1447 1446 1445 1444 1440 1438 1436 1434 1433 1433 1432 1429 1427 1425 1424 1424 1423 1423 1423 1424 1424 1425 1425 1425 1426 1427 1426 1427 1428 1429 1431 1432 1433 1434 1435 1436 1438 1440
1496 1497 1497 1497 1496 1496 1496 1496 1495 1495 1494 1494 1493 1492 1490 1488 1486 1484 1481 1478 1475 1472 1469 1467 1466 1464 1461 1459 1457 1455 1453 1451 1450 1449 1448 1447 1447 1447 1447 1447 1447 1447 1447 1447 1447 1447 1447 1446 1445 1444 1443 1442 1440 1437 1434 1433 1431 1430 1429 1427 1424 1422 1421 1420 1420 1419 1419 1419 1419 1419 1420 1420 1421 1422 1423 1423 1423 1424 1425 1427 1428 1429 1430 1431 1432 1434 1436
1494 1495 1496 1495 1495 1495 1494 1493 1493 1492 1492 1491 1490 1489 1488 1486 1483 1480 1478 1475 1472 1469 1465 1463 1461 1459 1457 1455 1453 1451 1449 1447 1445 1444 1443 1442 1442 1442 1443 1443 1443 1443 1443 1443 1443 1443 1443 1442 1441 1441 1440 1438 1436 1434 1432 1431 1429 1427 1425 1423 1420 1418 1417 1416 1416 1415 1414 1414 1414 1415 1415 1416 1416 1417 1418 1419 1420 1420 1421 1422 1423 1424 1425 1426 1428 1429 1431
1493 1494 1494 1493 1493 1493 1492 1491 1491 1490 1489 1489 1488 1486 1485 1483 1480 1477 1475 1472 1469 1465 1462 1459 1457 1454 1452 1450 1448 1446 1444 1442 1440 1438 1437 1437 1437 1437 1438 1438 1439 1439 1439 1439 1439 1439 1438 1438 1438 1437 1436 1434 1432 1431 1429 1428 1426 1424 1421 1418 1415 1414 1413 1412 1411 1410 1410 1409 1409 1410 1410 1411 1412 1413 1414 1415 1416 1416 1417 1418 1418 1419 1421 1422 1423 1425 1427
1491 1491 1492 1491 1491 1491 1490 1490 1489 1488 1487 1487 1485 1484 1482 1480 1478 1475 1472 1469 1466 1462 1459 1456 1453 1450 1447 1444 1442 1439 1437 1435 1434 1432 1431 1430 1431 1431 1432 1434 1435 1435 1436 1436 1435 1435 1435 1435 1434 1433 1432 1430 1429 1427 1426 1424 1422 1420 1417 1414 1411 1410 1409 1408 1407 1406 1405 1405 1405 1406 1406 1406 1407 1408 1409 1410 1411 1412 1412 1413 1414 1415 1417 1418 1419 1421 1423
1489 1489 1489 1490 1489 1489 1488 1488 1487 1486 1485 1484 1483 1481 1480 1478 1476 1473 1470 1467 1463 1460 1457 1453 1449 1445 1441 1438 1435 1432 1430 1429 1427 1426 1425 1424 1425 1426 1428 1429 1431 1432 1432 1432 1432 1432 1432 1432 1431 1430 1428 1427 1426 1424 1423 1421 1419 1416 1414 1411 1409 1407 1406 1405 1403 1402 1401 1401 1402 1402 1403 1403 1403 1404 1405 1406 1407 1408 1408 1409 1409 1411 1412 1414 1415 1417 1419
1487 1487 1488 1488 1487 1487 1486 1486 1485 1484 1483 1483 1481 1480 1478 1476 1474 1471 1468 1464 1461 1458 1454 1450 1445 1441 1436 1432 1428 1425 1424 1422 1421 1419 1419 1419 1420 1422 1424 1426 1427 1429 1429 1429 1429 1429 1430 1429 1428 1427 1426 1425 1423 1422 1421 1419 1416 1414 1412 1409 1406 1404 1403 1401 1399 1398 1398 1398 1398 1398 1399 1400 1400 1401 1401 1402 1403 1404 1404 1405 1406 1407 1409 1410 1412 1414 1415
1486 1486 1486 1486 1486 1485 1485 1484 1483 1483 1482 1481 1479 1478 1476 1475 1472 1469 1466 1462 1459 1455 1451 1447 1443 1438 1433 1428 1423 1420 1417 1416 1414 1414 1414 1415 1417 1418 1420 1422 1424 1425 1426 1426 1427 1427 1427 1426 1425 1425 1424 1423 1421 1420 1419 1416 1414 1412 1410 1407 1403 1401 1400 1397 1396 1395 1395 1395 1395 1395 1395 1396 1397 1398 1398 1398 1399 1400 1401 1402 1403 1404 1406 1407 1408 1409 1410
1484 1484 1485 1485 1484 1484 1483 1482 1482 1481 1480 1479 1478 1476 1475 1473 1471 1468 1464 1460 1457 1453 1449 1446 1441 1436 1431 1426 1421 1416 1413 1411 1410 1410 1412 1413 1413 1415 1416 1418 1419 1421 1422 1423 1424 1424 1424 1424 1422 1422 1421 1420 1419 1417 1416 1414 1412 1409 1407 1404 1401 1399 1398 1396 1395 1394 1393 1393 1392 1392 1392 1393 1394 1395 1395 1395 1396 1396 1397 1398 1399 1401 1402 1402 1403 1404 1406
1483 1483 1484 1483 1483 1482 1482 1481 1480 1480 1479 1478 1477 1475 1473 1471 1469 1466 1462 1459 1456 1452 1448 1445 1441 1436 1431 1426 1421 1415 1412 1410 1409 1409 1410 1410 1410 1410 1412 1413 1416 1418 1419 1420 1421 1421 1421 1420 1419 1419 1418 1418 1416 1415 1414 1413 1411 1408 1406 1403 1401 1399 1397 1395 1394 1393 1393 1391 1390 1389 1390 1391 1391 1392 1392 1392 1393 1394 1395 1395 1396 1397 1398 1399 1400 1401 1402
1482 1482 1482 1482 1482 1481 1480 1479 1479 1478 1477 1476 1475 1474 1472 1470 1467 1464 1461 1458 1455 1451 1448 1445 1441 1437 1433 1428 1423 1417 1414 1412 1411 1411 1410 1410 1409 1409 1410 1411 1413 1415 1416 1417 1417 1418 1418 1417 1416 1416 1416 1416 1415 1414 1413 1412 1410 1408 1406 1403 1400 1398 1396 1395 1394 1394 1393 1391 1390 1389 1389 1389 1389 1389 1389 1390 1390 1391 1392 1393 1394 1394 1395 1396 1397 1397 1399
1481 1481 1481 1481 1481 1480 1479 1478 1477 1477 1476 1475 1474 1473 1471 1469 1466 1463 1460 1457 1454 1451 1447 1444 1441 1437 1434 1431 1427 1422 1419 1416 1415 1414 1412 1411 1409 1409 1410 1411 1412 1413 1413 1414 1414 1414 1414 1414 1414 1414 1414 1414 1414 1413 1413 1412 1410 1408 1406 1403 1399 1397 1395 1395 1395 1394 1394 1392 1390 1389 1388 1388 1388 1388 1387 1387 1387 1388 1388 1390 1391 1392 1392 1393 1394 1394 1396
1480 1480 1480 1480 1479 1478 1477 1476 1476 1476 1475 1474 1473 1471 1470 1468 1465 1462 1459 1456 1453 1450 1447 1444 1441 1438 1435 1433 1430 1427 1424 1421 1419 1417 1415 1414 1412 1411 1411 1411 1412 1412 1412 1412 1412 1412 1412 1412 1412 1412 1412 1412 1412 1412 1411 1411 1409 1407 1404 1401 1398 1396 1395 1395 1396 1396 1395 1394 1392 1390 1388 1387 1387 1386 1385 1385 1385 1385 1386 1388 1389 1390 1390 1391 1392 1392 1394
1478 1479 1479 1479 1478 1477 1476 1475 1475 1475 1474 1473 1472 1470 1469 1467 1465 1462 1459 1456 1453 1450 1447 1444 1442 1439 1436 1434 1432 1429 1427 1424 1421 1419 1417 1415 1413 1412 1412 1412 1413 1412 1412 1412 1411 1411 1410 1410 1410 1411 1411 1411 1411 1410 1410 1409 1408 1406 1403 1400 1398 1397 1396 1396 1397 1397 1397 1395 1393 1390 1389 1388 1387 1386 1385 1384 1384 1385 1386 1387 1388 1387 1387 1388 1389 1390 1391
1477 1477 1477 1477 1477 1476 1475 1475 1475 1474 1473 1472 1471 1470 1468 1467 1465 1462 1459 1456 1453 1450 1447 1445 1442 1440 1437 1435 1432 1430 1427 1425 1423 1421 1419 1417 1416 1415 1415 1415 1414 1413 1413 1412 1411 1410 1409 1409 1409 1409 1410 1410 1410 1410 1409 1408 1407 1405 1403 1400 1399 1397 1397 1397 1398 1398 1398 1396 1394 1391 1390 1389 1388 1388 1387 1385 1384 1385 1387 1388 1387 1386 1385 1386 1387 1389 1390
1475 1476 1476 1476 1475 1475 1474 1474 1474 1474 1473 1472 1471 1469 1468 1466 1464 1462 1460 1457 1454 1451 1448 1446 1443 1440 1438 1435 1433 1430 1428 1426 1424 1423 1422 1421 1420 1419 1418 1417 1416 1415 1414 1413 1411 1409 1408 1408 1409 1409 1409 1410 1410 1410 1409 1409 1407 1405 1403 1401 1399 1398 1398 1398 1399 1399 1398 1396 1394 1393 1392 1391 1390 1390 1390 1388 1386 1385 1388 1391 1390 1388 1386 1386 1386 1387 1390
1474 1474 1475 1475 1474 1474 1474 1474 1474 1473 1472 1472 1470 1469 1467 1466 1464 1462 1460 1457 1455 1452 1450 1447 1444 1442 1439 1437 1434 1432 1430 1427 1426 1424 1423 1422 1421 1420 1420 1418 1418 1417 1415 1413 1410 1409 1408 1408 1409 1409 1410 1410 1410 1410 1410 1409 1408 1406 1404 1401 1400 1399 1399 1399 1400 1400 1399 1397 1396 1395 1394 1394 1393 1393 1394 1393 1390 1387 1389 1394 1396 1394 1391 1390 1389 1390 1391
1473 1473 1473 1474 1473 1473 1474 1473 1473 1473 1472 1471 1470 1468 1467 1466 1465 1463 1460 1458 1456 1453 1451 1448 1446 1443 1441 1439 1436 1434 1432 1430 1428 1426 1424 1423 1422 1422 1421 1420 1419 1417 1415 1413 1411 1410 1410 1409 1409 1410 1410 1410 1410 1411 1410 1410 1408 1406 1404 1403 1401 1401 1400 1400 1400 1401 1400 1399 1398 1397 1397 1397 1397 1396 1397 1397 1394 1391 1393 1399 1402 1401 1398 1396 1395 1395 1396
1471 1472 1473 1473 1473 1473 1473 1473 1472 1472 1472 1471 1469 1468 1467 1467 1465 1463 1461 1459 1457 1455 1452 1450 1448 1446 1444 1442 1439 1437 1435 1433 1431 1429 1427 1426 1425 1424 1423 1421 1420 1418 1416 1414 1413 1413 1412 1411 1411 1411 1411 1411 1411 1411 1411 1410 1408 1407 1406 1404 1403 1402 1402 1401 1402 1402 1402 1402 1401 1400 1400 1400 1400 1400 1399 1399 1398 1397 1399 1403 1406 1407 1407 1405 1401 1400 1401
1470 1471 1472 1472 1472 1472 1473 1472 1472 1471 1471 1470 1469 1468 1468 1467 1466 1464 1462 1461 1459 1457 1455 1453 1450 1448 1446 1444 1441 1439 1437 1435 1433 1431 1429 1427 1426 1425 1423 1422 1421 1419 1418 1416 1416 1415 1414 1414 1414 1413 1412 1412 1413 1413 1412 1411 1409 1408 1407 1406 1405 1404 1403 1403 1403 1403 1404 1404 1404 1403 1403 1402 1403 1403 1402 1402 1402 1403 1405 1406 1407 1410 1412 1413 1410 1408 1408
1469 1470 1471 1471 1472 1472 1472 1472 1472 1471 1470 1470 1469 1468 1468 1467 1466 1465 1463 1462 1460 1459 1457 1455 1453 1451 1449 1447 1445 1443 1441 1438 1436 1433 1431 1430 1428 1426 1425 1424 1423 1421 1420 1419 1419 1417 1416 1417 1417 1415 1414 1414 1415 1415 1414 1412 1411 1409 1408 1408 1407 1406 1406 1406 1406 1406 1406 1406 1406 1406 1405 1405 1405 1406 1406 1406 1406 1407 1409 1410 1410 1411 1414 1415 1415 1415 1415
1467 1469 1470 1471 1471 1471 1472 1472 1471 1471 1470 1470 1469 1469 1468 1468 1467 1466 1464 1463 1462 1461 1459 1457 1456 1454 1452 1451 1449 1447 1445 1442 1439 1437 1435 1434 1432 1430 1429 1428 1426 1425 1423 1422 1421 1420 1420 1420 1419 1418 1416 1417 1418 1417 1416 1414 1413 1411 1410 1410 1409 1409 1409 1409 1409 1410 1410 1410 1409 1408 1408 1407 1408 1409 1410 1410 1410 1411 1412 1414 1415 1416 1417 1419 1419 1420 1422
1467 1468 1469 1470 1470 1471 1472 1472 1471 1471 1470 1470 1469 1469 1469 1468 1468 1467 1466 1464 1463 1462 1461 1459 1458 1456 1455 1453 1452 1450 1448 1446 1443 1441 1439 1438 1436 1435 1434 1433 1431 1429 1427 1426 1425 1424 1423 1423 1422 1420 1419 1419 1420 1420 1419 1417 1416 1414 1413 1413 1413 1412 1413 1413 1413 1413 1413 1413 1413 1412 1411 1411 1412 1413 1414 1414 1415 1416 1417 1418 1420 1421 1423 1424 1425 1426 1428
1466 1467 1469 1469 1470 1471 1472 1472 1472 1471 1470 1470 1470 1470 1469 1469 1468 1468 1467 1466 1465 1464 1463 1461 1460 1459 1457 1456 1454 1453 1451 1449 1447 1445 1443 1442 1441 1440 1439 1438 1436 1434 1432 1431 1429 1428 1427 1426 1424 1423 1422 1423 1423 1423 1422 1421 1420 1419 1418 1417 1416 1416 1416 1416 1416 1416 1416 1416 1416 1416 1415 1416 1417 1418 1419 1420 1420 1421 1422 1423 1424 1426 1427 1428 1430 1431 1432
1466 1467 1468 1469 1470 1471 1472 1472 1472 1472 1471 1470 1470 1470 1470 1470 1470 1469 1468 1468 1467 1466 1465 1464 1463 1461 1460 1459 1457 1456 1454 1452 1450 1448 1447 1446 1445 1445 1444 1442 1441 1439 1437 1435 1434 1432 1431 1429 1428 1428 1427 1428 1428 1427 1427 1425 1424 1423 1422 1421 1420 1420 1420 1420 1420 1420 1420 1420 1420 1420 1420 1421 1421 1422 1423 1424 1425 1426 1426 1427 1428 1429 1430 1432 1433 1434 1434